Regional Weather Roundup
Issued by NWS

Home | Current Version | Previous Version | Graphics & Text | Print | Product List | Glossary On
Versions: 1 2 3 4 5 6 7 8 9 10 11 12 13 14 15 16 17 18 19 20 21 22 23 24 25 26 27 28 29 30 31 32 33 34 35 36 37 38 39 40 41 42 43 44 45 46 47 48 49 50
264
ASUS44 KJAN 272110
RWRMS

MISSISSIPPI HOURLY WEATHER ROUNDUP
NATIONAL WEATHER SERVICE JACKSON MS
300 PM CST THU NOV 27 2014

NOTE: "FAIR: INDICATES FEW OR NO CLOUDS BELOW 12,000 FEET WITH NO
SIGNIFICANT WEATHER AND/OR OBSTRUCTIONS TO VISIBILITY.

MSZ001>002-007>008-010>013-018>021-025>028-034>036-272200-
NORTHWEST MISSISSIPPI

CITY           SKY/WX    TMP DP  RH WIND       PRES   REMARKS
CLARKSDALE     FAIR      46  32  57 NE10      30.49R
CLEVELAND      FAIR      46  32  60 N5        30.48S
GREENWOOD      SUNNY     47  29  49 NW6       30.48S
GREENVILLE     MOSUNNY   47  30  51 VRB5      30.49R
GRENADA        FAIR      46  30  53 N8        30.47S
OLIVE BRANCH   PTSUNNY   43  30  61 N7        30.47S
OXFORD         FAIR      43  27  52 N7G18     30.48R
TUNICA         PTCLDY    45  32  61 N7        30.49F
$$

MSZ003>006-009-014>017-022>024-029>033-037>039-272200-
NORTHEAST MISSISSIPPI

CITY           SKY/WX    TMP DP  RH WIND       PRES   REMARKS
COLUMBUS AFB   PTSUNNY   44  27  52 N13       30.46R
CORINTH        CLOUDY    41  27  56 N9        30.45R
GOLDN TRIANGLE PTSUNNY   45  28  53 N9        30.44S
STARKVILLE     FAIR      45  30  57 N5        30.45S
TUPELO         PTSUNNY   44  28  53 N14       30.45S
$$

MSZ040-058-272200-
CENTRAL MISSISSIPPI

CITY           SKY/WX    TMP DP  RH WIND       PRES   REMARKS
JACKSON INTL   SUNNY     51  29  42 NW10      30.45S
JACKSON HAWKNS SUNNY     50  30  46 VRB6      30.45S
MERIDIAN KEY   SUNNY     50  29  44 NW9       30.42S
MERIDIAN NAS   SUNNY     50  29  44 N12       30.43S
RAYMOND        FAIR      50  46  87 NW7       30.46S
VICKSBURG      SUNNY     50  31  48 N12       30.47F
$$

MSZ059>079-272200-
SOUTH MISSISSIPPI

CITY           SKY/WX    TMP DP  RH WIND       PRES   REMARKS
BROOKHAVEN     FAIR      54  32  43 N10       30.44S
HATTIESBURG    SUNNY     55  30  38 N12       30.41S
MCCOMB         SUNNY     57  27  31 N13       30.41R
NATCHEZ        SUNNY     52  30  43 N10       30.45S
PINE BELT      SUNNY     55  28  35 N9        30.41F
$$

MSZ080>082-272200-
COASTAL MISSISSIPPI

CITY           SKY/WX    TMP DP  RH WIND       PRES   REMARKS
BAY ST LOUIS   SUNNY     61  21  21 N12       30.37S
BILOXI         SUNNY     59  29  32 N9        30.36S
PASCAGOULA     SUNNY     59  29  31 N14       30.36R
GULFPORT       SUNNY     60  29  30 N13G21    30.36S
$$



USA.gov is the U.S. government's official web portal to all federal, state and local government web resources and services.